Temp
44 44 44 44 42 42 40 35 34 32 32 31 32 32 32 32 31 30 31 29 29 29
44 43 42 41 41 40 39 35 32 32 31 31 31 32 31 31 30 30 29 29 28 28
43 43 42 40 38 36 36 35 32 31 31 31 31 31 31 29 29 29 28 29 28 28
41 40 39 38 38 37 34 32 32 32 32 31 31 30 30 30 29 29 28 28 28 28
39 38 38 38 36 35 32 33 32 32 32 32 31 31 31 30 30 29 28 28 28 26
37 37 37 36 35 33 32 32 32 32 32 32 31 30 31 31 30 30 29 28 27 26
37 37 37 35 34 33 33 32 32 32 32 32 31 31 31 31 29 29 29 28 27 26
36 37 36 34 33 33 32 33 32 31 31 30 31 32 31 31 29 29 28 27 28 26
35 35 34 32 32 32 32 31 31 30 30 29 31 36 36 32 29 29 28 27 26 26
34 33 33 32 31 31 30 31 30 30 29 29 30 37 38 36 30 29 28 28 27 26
33 33 32 31 31 31 31 30 30 29 30 30 30 37 37 36 29 28 28 27 27 26
33 32 31 30 30 31 30 29 29 28 27 28 27 36 36 35 30 28 27 27 27 26
34 32 31 31 30 29 28 28 27 27 27 27 28 32 33 36 30 27 27 26 26 28
33 32 32 30 29 27 27 27 26 26 26 27 27 27 34 35 30 29 27 26 24 25
MSLP
1021.29 1021.95 1022.68 1023.39 1023.85 1024.43 1025.26 1026.24 1027.18 1027.78 1028.16 1028.45 1028.63 1029.14 1029.67 1030.16 1030.73 1031.17 1031.61 1032.23 1032.78 1033.07
1020.99 1021.60 1022.32 1023.13 1023.96 1024.39 1024.82 1025.90 1026.99 1027.62 1028.23 1028.54 1028.85 1029.32 1029.85 1030.37 1030.98 1031.49 1032.03 1032.44 1032.68 1033.01
1020.57 1021.29 1022.07 1022.94 1023.71 1024.33 1025.09 1025.72 1026.79 1027.64 1028.13 1028.58 1029.07 1029.55 1030.03 1030.79 1031.36 1031.71 1032.34 1032.44 1032.64 1033.30
1020.29 1021.02 1021.81 1022.57 1023.40 1024.07 1024.96 1025.79 1026.55 1027.33 1028.00 1028.65 1029.25 1029.80 1030.24 1030.89 1031.51 1031.87 1032.23 1032.61 1032.85 1033.48
1020.01 1020.76 1021.56 1022.30 1023.12 1023.95 1024.77 1025.68 1026.34 1027.22 1027.92 1028.65 1029.26 1029.80 1030.23 1030.77 1031.28 1031.61 1032.08 1032.55 1033.04 1033.61
1019.69 1020.40 1021.15 1022.04 1022.94 1023.79 1024.63 1025.47 1026.26 1026.94 1027.62 1028.23 1028.81 1029.44 1030.01 1030.40 1030.94 1031.48 1031.84 1032.31 1032.87 1033.29
1018.86 1019.66 1020.55 1021.48 1022.30 1023.14 1023.98 1024.93 1025.93 1026.66 1027.34 1027.97 1028.54 1029.06 1029.56 1030.17 1030.82 1031.25 1031.69 1032.27 1032.57 1032.97
1018.29 1019.18 1020.07 1020.91 1021.89 1022.81 1023.61 1024.43 1025.29 1026.35 1027.28 1027.92 1028.33 1028.77 1029.41 1029.92 1030.43 1030.88 1031.59 1032.13 1032.32 1032.57
1018.33 1019.02 1019.82 1020.93 1021.86 1022.75 1023.52 1024.21 1024.94 1025.85 1026.67 1027.56 1028.14 1028.37 1028.79 1029.73 1030.20 1030.65 1031.18 1031.60 1032.06 1032.31
1017.65 1018.45 1019.24 1020.30 1021.48 1022.53 1023.06 1023.82 1024.83 1025.68 1026.43 1027.15 1027.70 1028.02 1028.49 1029.16 1030.04 1030.45 1030.81 1031.11 1031.57 1031.83
1017.08 1017.90 1018.87 1019.72 1020.67 1021.79 1022.73 1023.39 1024.25 1025.27 1026.05 1026.83 1027.32 1027.49 1028.10 1028.79 1029.64 1030.22 1030.46 1030.61 1030.81 1031.02
1016.57 1017.60 1018.61 1019.49 1020.26 1021.29 1022.44 1023.30 1023.94 1024.77 1025.59 1026.36 1026.93 1027.09 1027.68 1028.68 1029.17 1029.71 1029.80 1030.11 1030.30 1030.35
1015.80 1017.08 1018.27 1019.35 1020.21 1021.09 1022.08 1023.06 1024.00 1024.76 1025.33 1025.88 1026.56 1026.90 1027.33 1027.86 1028.70 1029.08 1029.23 1029.47 1029.65 1029.69
1015.78 1016.78 1017.92 1019.28 1020.26 1021.13 1022.21 1023.19 1024.00 1024.70 1025.30 1025.76 1026.26 1026.39 1026.67 1027.15 1027.70 1028.08 1028.32 1028.53 1028.89 1029.03
Wind_Speed
11 8 8 10 10 10 10 8 8 6 6 7 8 7 7 6 5 7 7 8 5 5
11 12 11 10 9 7 8 8 8 8 8 7 7 8 7 6 6 6 5 6 6 6
12 11 11 10 11 11 9 10 10 8 8 8 7 7 7 6 6 7 4 4 7 5
11 12 11 12 11 11 10 10 11 10 10 9 9 7 7 6 7 8 7 5 6 6
12 11 12 12 12 11 11 10 10 10 9 9 8 8 9 9 7 9 8 7 6 6
13 14 14 12 12 11 11 11 10 10 11 11 10 10 7 7 8 7 7 8 7 7
14 14 14 14 14 15 14 13 11 10 10 10 9 8 8 7 7 6 6 6 6 7
13 13 13 14 13 13 13 12 11 10 8 7 8 7 8 8 7 7 6 5 6 6
11 12 12 12 12 12 11 11 11 11 10 9 6 14 15 9 7 6 7 7 6 5
13 14 14 13 13 13 14 13 11 10 10 9 7 16 16 15 5 6 7 6 6 6
14 14 13 14 14 13 12 13 12 11 10 9 8 16 15 14 6 5 6 7 8 7
14 14 14 14 13 11 11 10 10 9 9 9 6 17 16 15 6 8 9 7 8 8
13 13 13 12 12 9 9 9 7 7 8 8 8 15 18 16 6 9 7 6 7 14
10 11 11 10 8 9 9 8 7 7 6 8 9 9 19 18 8 9 7 7 6 6
Wind_Direction
162 164 166 174 164 163 164 163 160 151 148 139 127 120 113 109 109 114 113 123 126 119
165 163 167 163 167 161 154 152 152 150 144 136 126 126 122 125 118 115 125 127 118 110
169 166 161 158 167 162 152 150 148 147 147 141 135 131 125 123 127 130 132 129 119 104
168 165 161 169 168 166 151 153 156 158 152 150 144 141 133 136 146 140 136 129 128 125
164 164 170 173 167 159 155 158 155 154 152 150 151 153 153 155 162 153 149 150 140 146
170 173 176 169 163 158 154 157 154 159 164 164 164 162 162 165 165 161 157 162 163 160
178 177 174 168 168 168 168 163 166 170 167 168 165 166 164 159 159 159 164 168 168 167
174 175 170 170 170 167 167 168 164 159 159 158 166 170 166 167 167 164 170 179 183 178
172 165 168 165 165 163 165 161 156 163 166 168 177 183 182 166 170 176 182 191 194 189
170 171 170 165 165 171 169 159 168 168 167 176 170 187 189 189 185 185 201 192 186 201
171 170 167 166 172 171 169 169 169 171 174 173 184 190 193 198 170 207 212 201 199 203
172 169 169 175 170 162 160 166 169 167 166 174 177 193 200 210 180 219 224 212 209 206
169 170 171 167 162 154 155 157 153 155 173 178 197 202 206 213 210 225 224 219 219 213
154 150 151 143 139 140 144 144 159 168 170 198 204 214 220 219 212 229 227 226 222 219